Time,TemperatureF,DewpointF,PressureIn,WindDirection,WindDirectionDegrees,WindSpeedMPH,WindSpeedGustMPH,Humidity,HourlyPrecipIn,Conditions,Clouds,dailyrainin,SoftwareType,DateUTC
2013-03-10 00:01:00,5.0,-1.0,30.19,WSW,243,0.0,-999.0,76,-99.99,,,-99.99,,2013-03-10 07:01:00,
2013-03-10 00:11:00,5.0,-1.0,30.19,WSW,243,0.0,-999.0,76,-99.99,,,-99.99,,2013-03-10 07:11:00,
2013-03-10 00:21:00,5.0,-1.0,30.19,WSW,243,0.0,-999.0,76,-99.99,,,-99.99,,2013-03-10 07:21:00,
2013-03-10 00:31:00,3.0,-3.0,30.20,WSW,243,0.0,-999.0,75,-99.99,,,-99.99,,2013-03-10 07:31:00,
2013-03-10 00:42:00,3.0,-2.0,30.21,WSW,243,0.0,-999.0,78,-99.99,,,-99.99,,2013-03-10 07:42:00,
2013-03-10 00:52:00,3.0,-2.0,30.21,WSW,243,0.0,-999.0,78,-99.99,,,-99.99,,2013-03-10 07:52:00,
2013-03-10 01:01:00,4.0,-1.0,30.22,WSW,242,0.0,-999.0,79,-99.99,,,-99.99,,2013-03-10 08:01:00,
2013-03-10 01:11:00,4.0,-1.0,30.22,WSW,242,0.0,-999.0,79,-99.99,,,-99.99,,2013-03-10 08:11:00,
2013-03-10 01:21:00,5.0,-1.0,30.22,SSE,166,1.0,-999.0,77,-99.99,,,-99.99,,2013-03-10 08:21:00,
2013-03-10 01:31:00,5.0,-1.0,30.22,SSE,166,1.0,-999.0,77,-99.99,,,-99.99,,2013-03-10 08:31:00,
2013-03-10 01:42:00,5.0,-1.0,30.22,SSE,166,1.0,-999.0,77,-99.99,,,-99.99,,2013-03-10 08:42:00,
2013-03-10 01:52:00,6.0,0.0,30.23,SW,228,1.0,-999.0,76,-99.99,,,-99.99,,2013-03-10 08:52:00,
2013-03-10 03:01:00,6.0,0.0,30.22,SSE,161,1.0,-999.0,76,-99.99,,,-99.99,,2013-03-10 09:01:00,
2013-03-10 03:11:00,6.0,0.0,30.22,SSE,161,1.0,-999.0,76,-99.99,,,-99.99,,2013-03-10 09:11:00,
2013-03-10 03:21:00,6.0,0.0,30.23,SE,125,1.0,-999.0,76,-99.99,,,-99.99,,2013-03-10 09:21:00,
2013-03-10 03:31:00,6.0,0.0,30.23,SE,125,0.0,-999.0,75,-99.99,,,-99.99,,2013-03-10 09:31:00,
2013-03-10 03:41:00,6.0,0.0,30.23,SE,125,0.0,-999.0,75,-99.99,,,-99.99,,2013-03-10 09:41:00,
2013-03-10 03:52:00,5.0,-1.0,30.24,SE,133,0.0,-999.0,74,-99.99,,,-99.99,,2013-03-10 09:52:00,
2013-03-10 04:01:00,4.0,-2.0,30.24,SSE,163,1.0,-999.0,75,-99.99,,,-99.99,,2013-03-10 10:01:00,
2013-03-10 04:11:00,4.0,-2.0,30.24,SSE,163,1.0,-999.0,75,-99.99,,,-99.99,,2013-03-10 10:11:00,
2013-03-10 04:21:00,5.0,-1.0,30.25,NW,309,0.0,-999.0,75,-99.99,,,-99.99,,2013-03-10 10:21:00,
2013-03-10 04:32:00,5.0,-1.0,30.26,NW,322,0.0,-999.0,74,-99.99,,,-99.99,,2013-03-10 10:32:00,
2013-03-10 04:41:00,4.0,-2.0,30.27,SSE,149,1.0,-999.0,74,-99.99,,,-99.99,,2013-03-10 10:41:00,
2013-03-10 04:52:00,4.0,-2.0,30.27,SSE,149,1.0,-999.0,74,-99.99,,,-99.99,,2013-03-10 10:52:00,
2013-03-10 05:01:00,4.0,-2.0,30.27,SSE,149,1.0,-999.0,74,-99.99,,,-99.99,,2013-03-10 11:01:00,
2013-03-10 05:12:00,5.0,-2.0,30.29,North,5,1.0,-999.0,73,-99.99,,,-99.99,,2013-03-10 11:12:00,
2013-03-10 05:21:00,5.0,-2.0,30.29,North,5,1.0,-999.0,73,-99.99,,,-99.99,,2013-03-10 11:21:00,
2013-03-10 05:31:00,4.0,-3.0,30.29,NNE,15,1.0,-999.0,71,-99.99,,,-99.99,,2013-03-10 11:31:00,
2013-03-10 05:42:00,4.0,-3.0,30.29,NNE,15,1.0,-999.0,71,-99.99,,,-99.99,,2013-03-10 11:42:00,
2013-03-10 05:52:00,5.0,-3.0,30.30,South,187,1.0,-999.0,70,-99.99,,,-99.99,,2013-03-10 11:52:00,
2013-03-10 06:01:00,5.0,-3.0,30.30,SSW,197,1.0,-999.0,70,-99.99,,,-99.99,,2013-03-10 12:01:00,
2013-03-10 06:11:00,5.0,-3.0,30.30,SSW,197,1.0,-999.0,70,-99.99,,,-99.99,,2013-03-10 12:11:00,
2013-03-10 06:21:00,5.0,-3.0,30.31,SE,130,1.0,-999.0,70,-99.99,,,-99.99,,2013-03-10 12:21:00,
2013-03-10 06:31:00,5.0,-3.0,30.32,East,80,1.0,-999.0,70,-99.99,,,-99.99,,2013-03-10 12:31:00,
2013-03-10 06:42:00,5.0,-3.0,30.32,East,80,1.0,-999.0,70,-99.99,,,-99.99,,2013-03-10 12:42:00,
2013-03-10 06:52:00,5.0,-2.0,30.31,NE,53,1.0,-999.0,71,-99.99,,,-99.99,,2013-03-10 12:52:00,
2013-03-10 07:01:00,4.0,-3.0,30.31,ENE,60,1.0,-999.0,71,-99.99,,,-99.99,,2013-03-10 13:01:00,
2013-03-10 07:11:00,4.0,-3.0,30.31,ENE,60,1.0,-999.0,71,-99.99,,,-99.99,,2013-03-10 13:11:00,
2013-03-10 07:21:00,5.0,-3.0,30.31,East,100,1.0,-999.0,70,-99.99,,,-99.99,,2013-03-10 13:21:00,
2013-03-10 07:31:00,5.0,-3.0,30.32,ENE,78,1.0,-999.0,69,-99.99,,,-99.99,,2013-03-10 13:31:00,
2013-03-10 07:41:00,5.0,-3.0,30.32,ENE,78,1.0,-999.0,69,-99.99,,,-99.99,,2013-03-10 13:41:00,
2013-03-10 07:52:00,5.0,-3.0,30.33,South,171,2.0,-999.0,68,-99.99,,,-99.99,,2013-03-10 13:52:00,
2013-03-10 08:01:00,6.0,-2.0,30.34,SSW,212,1.0,-999.0,68,-99.99,,,-99.99,,2013-03-10 14:01:00,
2013-03-10 08:11:00,6.0,-2.0,30.34,SSW,212,1.0,-999.0,68,-99.99,,,-99.99,,2013-03-10 14:11:00,
2013-03-10 08:21:00,7.0,-2.0,30.34,West,270,2.0,-999.0,67,-99.99,,,-99.99,,2013-03-10 14:21:00,
2013-03-10 08:32:00,7.0,-2.0,30.35,ESE,113,2.0,-999.0,66,-99.99,,,-99.99,,2013-03-10 14:32:00,
2013-03-10 08:41:00,7.0,-2.0,30.35,ESE,113,2.0,-999.0,66,-99.99,,,-99.99,,2013-03-10 14:41:00,
2013-03-10 08:52:00,9.0,-1.0,30.35,SSE,165,2.0,-999.0,64,-99.99,,,-99.99,,2013-03-10 14:52:00,
2013-03-10 09:01:00,10.0,-1.0,30.35,SW,230,2.0,-999.0,61,-99.99,,,-99.99,,2013-03-10 15:01:00,
2013-03-10 09:11:00,10.0,-1.0,30.35,SW,230,2.0,-999.0,61,-99.99,,,-99.99,,2013-03-10 15:11:00,
2013-03-10 09:21:00,11.0,0.0,30.36,SW,226,2.0,-999.0,61,-99.99,,,-99.99,,2013-03-10 15:21:00,
2013-03-10 09:32:00,12.0,1.0,30.37,South,188,2.0,-999.0,60,-99.99,,,-99.99,,2013-03-10 15:32:00,
2013-03-10 09:42:00,12.0,1.0,30.37,South,188,2.0,-999.0,60,-99.99,,,-99.99,,2013-03-10 15:42:00,
2013-03-10 09:52:00,13.0,2.0,30.38,SSW,207,2.0,-999.0,61,-99.99,,,-99.99,,2013-03-10 15:52:00,
2013-03-10 10:01:00,13.0,1.0,30.40,NE,40,3.0,-999.0,59,-99.99,,,-99.99,,2013-03-10 16:01:00,
2013-03-10 10:12:00,13.0,1.0,30.40,NE,40,3.0,-999.0,59,-99.99,,,-99.99,,2013-03-10 16:12:00,
2013-03-10 10:21:00,14.0,2.0,30.40,SW,232,3.0,-999.0,58,-99.99,,,-99.99,,2013-03-10 16:21:00,
2013-03-10 10:31:00,14.0,2.0,30.41,East,100,2.0,-999.0,59,-99.99,,,-99.99,,2013-03-10 16:31:00,
2013-03-10 10:41:00,14.0,2.0,30.41,East,100,2.0,-999.0,59,-99.99,,,-99.99,,2013-03-10 16:41:00,
2013-03-10 10:52:00,16.0,4.0,30.40,NE,43,3.0,-999.0,58,-99.99,,,-99.99,,2013-03-10 16:52:00,
2013-03-10 11:01:00,16.0,3.0,30.41,South,175,3.0,-999.0,57,-99.99,,,-99.99,,2013-03-10 17:01:00,
2013-03-10 11:11:00,16.0,3.0,30.41,South,175,3.0,-999.0,57,-99.99,,,-99.99,,2013-03-10 17:11:00,
2013-03-10 11:21:00,16.0,3.0,30.41,South,175,3.0,-999.0,57,-99.99,,,-99.99,,2013-03-10 17:21:00,
2013-03-10 11:31:00,18.0,6.0,30.42,South,179,3.0,-999.0,58,-99.99,,,-99.99,,2013-03-10 17:31:00,
2013-03-10 11:41:00,18.0,6.0,30.42,South,179,3.0,-999.0,58,-99.99,,,-99.99,,2013-03-10 17:41:00,
2013-03-10 11:51:00,19.0,6.0,30.42,SW,234,2.0,-999.0,55,-99.99,,,-99.99,,2013-03-10 17:51:00,
2013-03-10 12:01:00,19.0,5.0,30.42,SW,219,3.0,-999.0,53,-99.99,,,-99.99,,2013-03-10 18:01:00,
2013-03-10 12:11:00,19.0,5.0,30.42,SW,219,3.0,-999.0,53,-99.99,,,-99.99,,2013-03-10 18:11:00,
2013-03-10 12:21:00,20.0,6.0,30.42,SSE,147,4.0,-999.0,54,-99.99,,,-99.99,,2013-03-10 18:21:00,
2013-03-10 12:32:00,21.0,7.0,30.42,WNW,294,4.0,-999.0,54,-99.99,,,-99.99,,2013-03-10 18:32:00,
2013-03-10 12:42:00,21.0,7.0,30.42,WNW,294,4.0,-999.0,54,-99.99,,,-99.99,,2013-03-10 18:42:00,
2013-03-10 12:52:00,21.0,7.0,30.42,West,261,4.0,-999.0,54,-99.99,,,-99.99,,2013-03-10 18:52:00,
2013-03-10 13:01:00,22.0,7.0,30.42,South,182,4.0,-999.0,52,-99.99,,,-99.99,,2013-03-10 19:01:00,
2013-03-10 13:11:00,22.0,7.0,30.42,South,182,4.0,-999.0,52,-99.99,,,-99.99,,2013-03-10 19:11:00,
2013-03-10 13:21:00,23.0,7.0,30.41,West,276,4.0,-999.0,50,-99.99,,,-99.99,,2013-03-10 19:21:00,
2013-03-10 13:31:00,24.0,8.0,30.41,SSW,196,3.0,-999.0,49,-99.99,,,-99.99,,2013-03-10 19:31:00,
2013-03-10 13:42:00,24.0,8.0,30.41,SSW,196,3.0,-999.0,49,-99.99,,,-99.99,,2013-03-10 19:42:00,
2013-03-10 13:53:00,24.0,7.0,30.39,ESE,116,3.0,-999.0,47,-99.99,,,-99.99,,2013-03-10 19:53:00,
2013-03-10 14:02:00,24.0,7.0,30.41,West,272,4.0,-999.0,48,-99.99,,,-99.99,,2013-03-10 20:02:00,
2013-03-10 14:12:00,24.0,7.0,30.41,West,272,4.0,-999.0,48,-99.99,,,-99.99,,2013-03-10 20:12:00,
2013-03-10 14:22:00,25.0,8.0,30.42,South,174,4.0,-999.0,47,-99.99,,,-99.99,,2013-03-10 20:22:00,
2013-03-10 14:32:00,26.0,8.0,30.42,WSW,242,3.0,-999.0,45,-99.99,,,-99.99,,2013-03-10 20:32:00,
2013-03-10 14:42:00,26.0,8.0,30.42,WSW,242,3.0,-999.0,45,-99.99,,,-99.99,,2013-03-10 20:42:00,
2013-03-10 14:53:00,27.0,9.0,30.42,WSW,239,3.0,-999.0,46,-99.99,,,-99.99,,2013-03-10 20:53:00,
2013-03-10 15:02:00,26.0,9.0,30.43,SW,219,4.0,-999.0,48,-99.99,,,-99.99,,2013-03-10 21:02:00,
2013-03-10 15:12:00,26.0,9.0,30.43,SW,219,4.0,-999.0,48,-99.99,,,-99.99,,2013-03-10 21:12:00,
2013-03-10 15:22:00,25.0,9.0,30.43,SSW,206,3.0,-999.0,50,-99.99,,,-99.99,,2013-03-10 21:22:00,
2013-03-10 15:32:00,26.0,10.0,30.44,SSW,211,2.0,-999.0,50,-99.99,,,-99.99,,2013-03-10 21:32:00,
2013-03-10 15:42:00,26.0,10.0,30.44,SSW,211,2.0,-999.0,50,-99.99,,,-99.99,,2013-03-10 21:42:00,
2013-03-10 15:53:00,25.0,9.0,30.45,SW,231,2.0,-999.0,51,-99.99,,,-99.99,,2013-03-10 21:53:00,
2013-03-10 16:02:00,25.0,10.0,30.45,WSW,255,3.0,-999.0,52,-99.99,,,-99.99,,2013-03-10 22:02:00,
2013-03-10 16:12:00,25.0,10.0,30.45,WSW,255,3.0,-999.0,52,-99.99,,,-99.99,,2013-03-10 22:12:00,
2013-03-10 16:22:00,26.0,10.0,30.44,NNW,338,1.0,-999.0,50,-99.99,,,-99.99,,2013-03-10 22:22:00,
2013-03-10 16:32:00,25.0,9.0,30.45,WSW,250,2.0,-999.0,49,-99.99,,,-99.99,,2013-03-10 22:32:00,
2013-03-10 16:42:00,25.0,9.0,30.45,WSW,250,2.0,-999.0,49,-99.99,,,-99.99,,2013-03-10 22:42:00,
2013-03-10 16:53:00,25.0,9.0,30.46,SW,221,2.0,-999.0,51,-99.99,,,-99.99,,2013-03-10 22:53:00,
2013-03-10 17:02:00,25.0,9.0,30.46,South,180,2.0,-999.0,49,-99.99,,,-99.99,,2013-03-10 23:02:00,
2013-03-10 17:12:00,25.0,8.0,30.45,WNW,299,2.0,-999.0,48,-99.99,,,-99.99,,2013-03-10 23:12:00,
2013-03-10 17:22:00,25.0,8.0,30.45,WNW,299,2.0,-999.0,48,-99.99,,,-99.99,,2013-03-10 23:22:00,
2013-03-10 17:32:00,24.0,9.0,30.45,SSW,200,2.0,-999.0,51,-99.99,,,-99.99,,2013-03-10 23:32:00,
2013-03-10 17:42:00,24.0,9.0,30.45,SSW,200,2.0,-999.0,51,-99.99,,,-99.99,,2013-03-10 23:42:00,
2013-03-10 17:52:00,23.0,9.0,30.45,ESE,117,3.0,-999.0,54,-99.99,,,-99.99,,2013-03-10 23:52:00,
2013-03-10 18:02:00,21.0,7.0,30.45,East,100,3.0,-999.0,55,-99.99,,,-99.99,,2013-03-11 00:02:00,
2013-03-10 18:12:00,21.0,7.0,30.45,East,100,3.0,-999.0,55,-99.99,,,-99.99,,2013-03-11 00:12:00,
2013-03-10 18:22:00,21.0,8.0,30.46,East,82,2.0,-999.0,56,-99.99,,,-99.99,,2013-03-11 00:22:00,
2013-03-10 18:33:00,20.0,6.0,30.45,ENE,76,2.0,-999.0,55,-99.99,,,-99.99,,2013-03-11 00:33:00,
2013-03-10 18:43:00,20.0,6.0,30.45,ENE,76,2.0,-999.0,55,-99.99,,,-99.99,,2013-03-11 00:43:00,
2013-03-10 18:53:00,19.0,6.0,30.49,East,79,1.0,-999.0,56,-99.99,,,-99.99,,2013-03-11 00:53:00,
2013-03-10 19:02:00,19.0,7.0,30.49,East,79,2.0,-999.0,59,-99.99,,,-99.99,,2013-03-11 01:02:00,
2013-03-10 19:12:00,19.0,7.0,30.49,East,79,2.0,-999.0,59,-99.99,,,-99.99,,2013-03-11 01:12:00,
2013-03-10 19:22:00,18.0,6.0,30.48,NNE,18,2.0,-999.0,60,-99.99,,,-99.99,,2013-03-11 01:22:00,
2013-03-10 19:32:00,18.0,6.0,30.49,ENE,70,1.0,-999.0,60,-99.99,,,-99.99,,2013-03-11 01:32:00,
2013-03-10 19:42:00,18.0,6.0,30.49,ENE,70,1.0,-999.0,60,-99.99,,,-99.99,,2013-03-11 01:42:00,
2013-03-10 19:53:00,17.0,6.0,30.49,NE,55,1.0,-999.0,60,-99.99,,,-99.99,,2013-03-11 01:53:00,
2013-03-10 20:02:00,16.0,5.0,30.49,NE,55,0.0,-999.0,61,-99.99,,,-99.99,,2013-03-11 02:02:00,
2013-03-10 20:12:00,16.0,5.0,30.49,NE,55,0.0,-999.0,61,-99.99,,,-99.99,,2013-03-11 02:12:00,
2013-03-10 20:22:00,16.0,5.0,30.50,NE,55,1.0,-999.0,61,-99.99,,,-99.99,,2013-03-11 02:22:00,
2013-03-10 20:32:00,16.0,5.0,30.51,NE,55,0.0,-999.0,62,-99.99,,,-99.99,,2013-03-11 02:32:00,
2013-03-10 20:42:00,16.0,5.0,30.51,NE,55,0.0,-999.0,62,-99.99,,,-99.99,,2013-03-11 02:42:00,
2013-03-10 20:52:00,16.0,5.0,30.50,NE,55,0.0,-999.0,61,-99.99,,,-99.99,,2013-03-11 02:52:00,
2013-03-10 21:02:00,16.0,5.0,30.50,NE,55,0.0,-999.0,61,-99.99,,,-99.99,,2013-03-11 03:02:00,
2013-03-10 21:12:00,16.0,5.0,30.50,NE,55,0.0,-999.0,61,-99.99,,,-99.99,,2013-03-11 03:12:00,
2013-03-10 21:22:00,16.0,5.0,30.50,NE,55,0.0,-999.0,60,-99.99,,,-99.99,,2013-03-11 03:22:00,
2013-03-10 21:32:00,15.0,4.0,30.49,NE,55,1.0,-999.0,62,-99.99,,,-99.99,,2013-03-11 03:32:00,
2013-03-10 21:42:00,15.0,4.0,30.49,NE,55,1.0,-999.0,62,-99.99,,,-99.99,,2013-03-11 03:42:00,
2013-03-10 21:53:00,15.0,5.0,30.49,NE,55,1.0,-999.0,64,-99.99,,,-99.99,,2013-03-11 03:53:00,
2013-03-10 22:02:00,15.0,5.0,30.50,NE,55,0.0,-999.0,64,-99.99,,,-99.99,,2013-03-11 04:02:00,
2013-03-10 22:12:00,15.0,5.0,30.50,NE,55,0.0,-999.0,64,-99.99,,,-99.99,,2013-03-11 04:12:00,
2013-03-10 22:22:00,15.0,5.0,30.50,NE,55,0.0,-999.0,64,-99.99,,,-99.99,,2013-03-11 04:22:00,
2013-03-10 22:32:00,16.0,6.0,30.51,East,79,1.0,-999.0,65,-99.99,,,-99.99,,2013-03-11 04:32:00,
2013-03-10 22:42:00,16.0,6.0,30.51,East,79,1.0,-999.0,65,-99.99,,,-99.99,,2013-03-11 04:42:00,
2013-03-10 22:53:00,18.0,7.0,30.50,NE,50,2.0,-999.0,62,-99.99,,,-99.99,,2013-03-11 04:53:00,
2013-03-10 23:03:00,18.0,7.0,30.50,ENE,76,1.0,-999.0,62,-99.99,,,-99.99,,2013-03-11 05:03:00,
2013-03-10 23:12:00,18.0,7.0,30.50,ENE,76,1.0,-999.0,62,-99.99,,,-99.99,,2013-03-11 05:12:00,
2013-03-10 23:22:00,19.0,7.0,30.50,North,360,1.0,-999.0,60,-99.99,,,-99.99,,2013-03-11 05:22:00,
2013-03-10 23:32:00,19.0,7.0,30.49,NE,42,1.0,-999.0,60,-99.99,,,-99.99,,2013-03-11 05:32:00,
2013-03-10 23:42:00,19.0,7.0,30.49,NE,42,1.0,-999.0,60,-99.99,,,-99.99,,2013-03-11 05:42:00,
2013-03-10 23:52:00,19.0,7.0,30.49,East,80,3.0,-999.0,58,-99.99,,,-99.99,,2013-03-11 05:52:00,